Date,TemperatureHighF,TemperatureAvgF,TemperatureLowF,DewpointHighF,DewpointAvgF,DewpointLowF,HumidityHigh,HumidityAvg,HumidityLow,PressureMaxIn,PressureMinIn,WindSpeedMaxMPH,WindSpeedAvgMPH,GustSpeedMaxMPH,PrecipitationSumIn
2013-9-1,91.8,80.5,71.2,67.5,65.0,61.0,78,61,43,29.93,29.83,22,2,22,0.00
2013-9-2,95.2,80.4,66.2,65.7,61.0,53.4,81,55,29,29.91,29.80,19,2,22,0.00
2013-9-3,98.1,81.4,66.0,60.3,57.3,53.6,73,47,27,29.91,29.81,21,2,22,0.00
2013-9-4,101.1,81.7,63.5,58.5,54.4,50.7,68,43,22,29.94,29.82,19,2,20,0.00
2013-9-5,101.1,82.0,64.0,56.3,51.1,42.8,58,37,20,29.91,29.81,20,2,20,0.00
2013-9-6,102.4,82.0,62.4,53.2,48.0,43.5,55,33,18,29.90,29.78,21,2,23,0.00
2013-9-7,100.6,81.1,61.5,55.9,46.0,35.2,52,32,16,29.89,29.78,20,2,20,0.00
2013-9-8,97.2,78.1,59.7,51.8,44.8,40.6,50,33,17,29.86,29.72,22,2,22,0.00
2013-9-9,90.0,75.6,63.3,56.3,51.1,45.7,63,44,26,29.81,29.71,24,4,24,0.00
2013-9-10,83.7,69.6,56.8,56.3,53.0,40.1,84,58,27,29.94,29.80,24,4,24,0.00
2013-9-11,83.3,68.1,52.9,56.5,53.1,48.6,85,61,35,30.00,29.93,19,3,25,0.00
2013-9-12,92.1,71.2,52.0,55.2,48.5,37.9,89,52,16,29.96,29.84,20,2,22,0.00
2013-9-13,93.6,74.4,55.0,54.9,47.9,41.9,62,42,24,29.87,29.68,23,3,25,0.00
2013-9-14,98.4,78.1,59.0,57.9,50.5,45.5,62,41,20,29.74,29.62,21,2,21,0.00
2013-9-15,99.7,78.3,59.4,54.0,48.8,40.6,65,40,16,29.78,29.69,20,2,20,0.00
2013-9-16,98.1,76.7,56.7,48.9,44.9,36.7,63,37,16,29.84,29.73,21,1,21,0.00
2013-9-17,86.2,69.9,50.7,54.1,46.7,34.9,73,47,18,29.82,29.72,22,2,23,0.00
2013-9-18,80.4,68.4,52.3,56.7,50.2,41.7,79,54,33,29.81,29.73,25,4,26,0.00
2013-9-19,88.2,68.0,51.1,60.1,54.3,47.1,87,65,35,29.83,29.74,25,5,25,0.00
2013-9-20,73.0,63.3,52.3,59.9,56.4,49.5,92,79,63,29.91,29.83,27,5,27,0.00
2013-9-21,77.5,64.7,55.9,56.7,54.3,49.6,86,71,44,29.94,29.79,27,3,27,0.00
2013-9-22,78.6,64.5,50.0,49.8,41.8,34.9,85,48,22,29.90,29.81,16,3,21,0.00
2013-9-23,93.7,73.1,49.5,42.8,37.9,32.5,61,31,16,29.93,29.83,15,-9,15,0.00
2013-9-24,90.0,70.4,50.4,45.5,37.6,31.8,50,33,14,29.96,29.85,22,3,23,0.00
2013-9-25,75.0,64.2,51.4,55.0,51.2,43.7,76,63,46,29.86,29.69,25,5,25,0.00
2013-9-26,71.8,63.0,54.1,52.2,36.5,26.2,77,40,19,29.94,29.74,31,8,31,0.00
2013-9-27,79.3,62.6,43.5,35.1,27.7,22.6,48,29,14,30.06,29.93,31,6,32,0.00
2013-9-28,88.3,63.7,42.8,32.2,26.5,22.5,45,27,10,30.11,29.99,14,1,14,0.00
2013-9-29,88.5,65.1,44.2,33.6,27.4,22.6,43,27,10,30.12,29.99,21,2,21,0.00
2013-9-30,91.0,70.8,53.4,48.6,39.7,30.0,49,34,17,30.03,29.86,16,2,26,0.00